User: anonymous   Login
Location: Unspecified
(0.0000°N, 0.0000°E)
Time: 22:41:55
(UTC+00:00)
Language:

MetOp-B - Orbit

View from above orbital plane
View from above orbital plane
View from above satellite
View from above satellite

Ground track
Ground track

The orbit data is extracted from the following two-line orbital elements,

1 38771U 12049A   21125.44487334 -.00000011  00000-0  15237-4 0  9995
2 38771  98.7183 186.0583 0002211 117.6287 305.3662 14.21476218447762
Epoch (UTC): 05 May 2021 10:40:37
Eccentricity: 0.0002211
inclination: 98.7183°
perigee height: 819 km
apogee height: 822 km
right ascension of ascending node: 186.0583°
argument of perigee: 117.6287°
revolutions per day: 14.21476218
mean anomaly at epoch: 305.3662°
orbit number at epoch: 44776

The dashed part of the orbit path shows where the satellite is in the earth's shadow,  

DLR